This is the latest recevied weather packets stored in our database for station/object SHLBYV-WX. If no packets are shown the sender has not sent any weather packets the latest 10 day(s).
| Time | Temp. | Humidity | Pressure | Rain* | Wind** | Luminosity | Snow |
|---|---|---|---|---|---|---|---|
| 1777267865 | 8.89° C | 67% | 986.9 hPa | 0 mm | - | - | - |
| 1777266953 | 8.89° C | 67% | 986.9 hPa | 0 mm | - | - | - |
| 1777266079 | 9.44° C | 67% | 986.9 hPa | 0 mm | - | - | - |
| 1777265152 | 9.44° C | 66% | 986.3 hPa | 0 mm | - | - | - |
| 1777264266 | 10° C | 66% | 986.2 hPa | 0 mm | - | - | - |
| 1777263352 | 9.44° C | 66% | 986.1 hPa | 0 mm | - | - | - |
| 1777262476 | 10° C | 66% | 986.1 hPa | 0 mm | - | - | - |
| 1777261552 | 10° C | 62% | 987.3 hPa | 0 mm | - | - | - |
| 1777260661 | 10.56° C | 64% | 987.8 hPa | 0 mm | - | - | - |
| 1777259749 | 10.56° C | 64% | 987.8 hPa | 0 mm | - | - | - |
| 1777258876 | 10.56° C | 64% | 987.8 hPa | 0 mm | - | - | - |
| 1777257949 | 11.11° C | 62% | 988.1 hPa | 0 mm | - | - | - |
| 1777257063 | 11.67° C | 67% | 988.1 hPa | 0 mm | - | - | - |
| 1777256150 | 11.67° C | 67% | 988.1 hPa | 0 mm | - | - | - |
| 1777255270 | 12.22° C | 67% | 988.1 hPa | 0 mm | - | - | - |
| 1777254349 | 12.78° C | 63% | 987.2 hPa | 0 mm | - | - | - |
| 1777253459 | 13.33° C | 63% | 987.2 hPa | 0 mm | - | - | - |
| 1777252546 | 13.33° C | 63% | 987.1 hPa | 0 mm | - | - | - |
| 1777251669 | 13.89° C | 63% | 987.1 hPa | 0 mm | - | - | - |
| 1777249859 | 15° C | 56% | 988.5 hPa | 0 mm | - | - | - |
| 1777248952 | 15.56° C | 56% | 988.5 hPa | 0 mm | - | - | - |
| 1777248081 | 16.11° C | 56% | 988.5 hPa | 0 mm | - | - | - |
| 1777247151 | 16.67° C | 51% | 986.8 hPa | 0 mm | - | - | - |
| 1777246265 | 17.22° C | 48% | 988.3 hPa | 0 mm | - | - | - |
| 1777245353 | 17.78° C | 48% | 988.3 hPa | 0 mm | - | - | - |
* Rain latest hour (hover to see other rain measurements)
** Current wind speed in m/s (hover to see current wind gust speed)